CZ-6A DEB, 55875

Orbit data source: Space-Track

CZ-6A DEB, 55875 is space debris in SSO originally from a launch on Fri, 11 Nov 2022 UTC launched from the Taiyaun Space Center, China (TSC). Debris objects in space refer to the collection of defunct objects orbiting the Earth. Examples of debris include non-operational satellites, rocket bodies, and fragments generated from explosions, collisions, or faulty payload assembly.

Loading next visibility...
Identifier
55875, 2022-151ZX
Orbit
SSO
Country
Flag of CNCN / PRC
Related business
Manufacturer
SAST
Mission
Spacecraft
Bus & Motor
Unknown
Mass
Unknown
Launch date (UTC)
2022-11-11 (4 years ago)
Launch vehicle
Unknown
Launch site
Taiyaun Space Center, China (TSC)
Object type
Payload
Rocket body
Debris
Shape & HBR
Unknown shape, 0.1 m
Radar Cross Section
Small (<0.1 m²)

Expand to show TLE details & history
Last TLE update: 1 day ago

TLE from 1 day ago
0 CZ-6A DEB
1 55875U 22151ZX  26262.97278571  .00001718  00000-0  81669-3 0  9995
2 55875  98.8241 271.7708 0043188  43.7730 316.6857 14.20253515186946
Epoch: 2026-09-19T23:20Z
TLE epoch observation values (Epoch: 2026-09-19T23:20:48.685Z)
Latitude
Longitude
-77.3057°
Altitude
804.832 km
Speed
7.463 km/s
True Right ascension
18h 07m 04s
True Declination
0° 00' 00"
Sunlit
Object was in daylight at epoch
Visualization orbit readout
Latitude
Unknown
Longitude
Unknown
Altitude
Unknown
Speed
Unknown
Apparent Right ascension
Unknown
Apparent Declination
Unknown
Sunlit
N/A
Visualization observer readout
Local Sidereal Time
17:10:43
Azimuth
Unknown
Elevation
Unknown
Doppler factor
Unknown
Orbital elements
Apogee altitude
852.754 km
Perigee altitude
790.565 km
Semi-major axis
7,199.796 km
Eccentricity
0.00432
Inclination
98.8241°
RAAN
271.7708°
Arg. of periapsis
43.773°
True anomaly
316.34486°
Mean anomaly
316.6857°
Eccentric anomaly
316.51542°
Mean motion
3.55274 °/min
Orbital period
101.33 mins
BSTAR
0.00081669
Loading maneuver chart data...
Computing Atmospheric mass density...

Documentation

Showing up to 5 results
|